DAL2874 KSLC-KSEA

Flight info

Callsign DAL2874
Flight time N/A
Altitude 36000
Route CGULL1 TWF BOI J163 HOVEL PDT CHINS5
Aircraft A320/M-SDE3FGHIRWY/LB1

Departure

Time 2026-05-01 13:50
Airport Salt Lake City International Airport (KSLC)

Arrival

Time N/A
Airport Seattle–Tacoma International Airport (KSEA)
Time Latitude Longitude Altitude Speed Heading
2026-05-01 13:17 40.78530 -111.98270 4235 ft 0 kts 355°
2026-05-01 13:34 40.78522 -111.98269 4234 ft 2 kts 355°
2026-05-01 13:34 40.78493 -111.98265 4235 ft 2 kts
2026-05-01 13:35 40.78475 -111.98283 4235 ft 1 kts 84°
2026-05-01 13:35 40.78475 -111.98287 4235 ft 0 kts 84°
2026-05-01 13:40 40.78477 -111.98255 4235 ft 7 kts 85°
2026-05-01 13:40 40.78482 -111.98184 4235 ft 8 kts 85°
2026-05-01 13:41 40.78486 -111.98114 4235 ft 8 kts 85°
2026-05-01 13:41 40.78491 -111.98044 4235 ft 8 kts 85°
2026-05-01 13:41 40.78498 -111.97944 4235 ft 12 kts 84°
2026-05-01 13:41 40.78507 -111.97835 4235 ft 11 kts 80°
2026-05-01 13:42 40.78519 -111.97743 4235 ft 10 kts 80°
2026-05-01 13:42 40.78545 -111.97668 4233 ft 8 kts 33°
2026-05-01 13:42 40.78612 -111.97664 4235 ft 12 kts 355°
2026-05-01 13:42 40.78717 -111.97676 4235 ft 17 kts 354°
2026-05-01 13:43 40.78829 -111.97690 4235 ft 15 kts 355°
2026-05-01 13:43 40.78925 -111.97701 4236 ft 14 kts 355°
2026-05-01 13:43 40.79036 -111.97714 4235 ft 18 kts 355°
2026-05-01 13:43 40.79183 -111.97731 4235 ft 23 kts 355°
2026-05-01 13:44 40.79343 -111.97748 4235 ft 23 kts 355°
2026-05-01 13:44 40.79507 -111.97768 4234 ft 24 kts 355°
2026-05-01 13:44 40.79673 -111.97788 4235 ft 24 kts 355°
2026-05-01 13:44 40.79840 -111.97807 4235 ft 25 kts 355°
2026-05-01 13:45 40.80011 -111.97826 4235 ft 25 kts 355°
2026-05-01 13:45 40.80179 -111.97846 4235 ft 22 kts 355°
2026-05-01 13:45 40.80306 -111.97835 4235 ft 17 kts 16°
2026-05-01 13:45 40.80417 -111.97823 4235 ft 15 kts 355°
2026-05-01 13:46 40.80534 -111.97837 4233 ft 18 kts 355°
2026-05-01 13:46 40.80625 -111.97835 4235 ft 8 kts 44°
2026-05-01 13:46 40.80630 -111.97810 4234 ft 0 kts 82°
2026-05-01 13:48 40.80631 -111.97803 4235 ft 5 kts 82°
2026-05-01 13:48 40.80640 -111.97717 4233 ft 10 kts 84°
2026-05-01 13:49 40.80595 -111.97677 4235 ft 8 kts 176°
2026-05-01 13:49 40.80521 -111.97669 4236 ft 21 kts 175°
2026-05-01 13:49 40.80124 -111.97622 4237 ft 91 kts 175°
2026-05-01 13:49 40.79295 -111.97526 4234 ft 146 kts 174°
2026-05-01 13:50 40.78147 -111.97404 4443 ft 172 kts 174°
2026-05-01 13:50 40.76953 -111.97271 5130 ft 173 kts 174°
2026-05-01 13:50 40.75762 -111.97120 5785 ft 172 kts 172°
2026-05-01 13:50 40.74532 -111.97031 6071 ft 188 kts 188°
2026-05-01 13:51 40.73304 -111.97832 6234 ft 213 kts 225°
2026-05-01 13:51 40.72570 -111.99622 6406 ft 238 kts 259°
2026-05-01 13:51 40.72676 -112.01876 6639 ft 261 kts 290°
2026-05-01 13:51 40.73681 -112.03953 6972 ft 280 kts 316°
2026-05-01 13:52 40.75126 -112.05710 7661 ft 284 kts 320°
2026-05-01 13:52 40.76630 -112.07420 8491 ft 286 kts 320°
2026-05-01 13:52 40.78138 -112.09142 9286 ft 289 kts 320°
2026-05-01 13:52 40.79662 -112.10897 10063 ft 293 kts 320°
2026-05-01 13:53 40.81218 -112.12692 10422 ft 311 kts 320°
2026-05-01 13:53 40.84692 -112.16689 11038 ft 345 kts 320°
2026-05-01 13:53 40.86513 -112.18793 11687 ft 350 kts 320°
2026-05-01 13:54 40.88355 -112.20926 12376 ft 353 kts 320°
2026-05-01 13:54 40.90211 -112.23074 13069 ft 356 kts 320°
2026-05-01 13:54 40.92081 -112.25243 13753 ft 359 kts 321°
2026-05-01 13:54 40.93970 -112.27435 14368 ft 363 kts 321°
2026-05-01 13:55 40.95874 -112.29644 14952 ft 366 kts 321°
2026-05-01 13:55 40.97819 -112.31907 15535 ft 370 kts 321°
2026-05-01 13:55 40.99761 -112.34166 16110 ft 373 kts 321°
2026-05-01 13:55 41.01695 -112.36417 16675 ft 376 kts 321°
2026-05-01 13:56 41.03674 -112.38722 17223 ft 380 kts 321°
2026-05-01 13:56 41.05673 -112.41044 17778 ft 384 kts 321°
2026-05-01 13:56 41.07775 -112.43240 18323 ft 386 kts 329°
2026-05-01 13:56 41.10050 -112.45153 18813 ft 388 kts 330°
2026-05-01 13:57 41.12340 -112.47077 19340 ft 391 kts 330°
2026-05-01 13:57 41.13876 -112.48368 19674 ft 393 kts 330°
2026-05-01 13:57 41.16973 -112.50978 20389 ft 396 kts 328°
2026-05-01 13:57 41.19247 -112.53069 20910 ft 399 kts 326°
2026-05-01 13:58 41.21473 -112.55291 21421 ft 402 kts 324°
2026-05-01 13:58 41.23680 -112.57593 21923 ft 405 kts 323°
2026-05-01 13:58 41.25889 -112.59930 22423 ft 407 kts 323°
2026-05-01 13:58 41.28048 -112.62383 22900 ft 411 kts 317°
2026-05-01 13:59 41.29958 -112.65159 23355 ft 414 kts 314°
2026-05-01 13:59 41.31894 -112.68011 23800 ft 416 kts 314°
2026-05-01 13:59 41.33853 -112.70865 24149 ft 419 kts 315°
2026-05-01 13:59 41.35833 -112.73741 24407 ft 424 kts 315°
2026-05-01 14:00 41.37188 -112.75713 24617 ft 427 kts 315°
2026-05-01 14:00 41.39852 -112.79596 25045 ft 431 kts 315°
2026-05-01 14:00 41.41210 -112.81594 25307 ft 431 kts 314°
2026-05-01 14:00 41.43206 -112.84588 25653 ft 434 kts 314°
2026-05-01 14:01 41.45169 -112.87588 25961 ft 436 kts 314°
2026-05-01 14:01 41.47161 -112.90664 26265 ft 439 kts 313°
2026-05-01 14:01 41.49159 -112.93762 26536 ft 443 kts 314°
2026-05-01 14:01 41.51183 -112.96897 26738 ft 448 kts 314°
2026-05-01 14:02 41.53230 -113.00055 27000 ft 451 kts 315°
2026-05-01 14:02 41.55294 -113.03230 27290 ft 454 kts 315°
2026-05-01 14:02 41.57368 -113.06419 27571 ft 457 kts 315°
2026-05-01 14:02 41.59459 -113.09635 27851 ft 459 kts 315°
2026-05-01 14:03 41.61563 -113.12872 28160 ft 461 kts 315°
2026-05-01 14:03 41.63665 -113.16106 28445 ft 463 kts 315°
2026-05-01 14:03 41.65786 -113.19375 28654 ft 467 kts 315°
2026-05-01 14:03 41.67917 -113.22665 28888 ft 470 kts 315°
2026-05-01 14:04 41.70058 -113.25980 29125 ft 472 kts 315°
2026-05-01 14:04 41.72211 -113.29316 29366 ft 474 kts 315°
2026-05-01 14:04 41.74374 -113.32668 29597 ft 476 kts 315°
2026-05-01 14:04 41.76542 -113.36032 29833 ft 478 kts 315°
2026-05-01 14:05 41.78716 -113.39416 30024 ft 480 kts 315°
2026-05-01 14:05 41.80896 -113.42813 30282 ft 480 kts 315°
2026-05-01 14:05 41.83070 -113.46202 30576 ft 479 kts 315°
2026-05-01 14:05 41.85238 -113.49592 30881 ft 478 kts 315°
2026-05-01 14:06 41.87393 -113.52966 31201 ft 475 kts 315°
2026-05-01 14:06 41.89539 -113.56328 31539 ft 473 kts 315°
2026-05-01 14:06 41.91677 -113.59675 31891 ft 471 kts 315°
2026-05-01 14:06 41.93799 -113.62998 32222 ft 467 kts 315°
2026-05-01 14:07 41.95906 -113.66301 32602 ft 464 kts 315°
2026-05-01 14:07 41.98000 -113.69584 32961 ft 462 kts 315°
2026-05-01 14:07 42.00086 -113.72858 33300 ft 459 kts 315°
2026-05-01 14:08 42.04186 -113.79314 34022 ft 453 kts 315°
2026-05-01 14:08 42.06218 -113.82529 34357 ft 449 kts 315°
2026-05-01 14:08 42.08226 -113.85706 34626 ft 447 kts 314°
2026-05-01 14:08 42.10251 -113.88907 34885 ft 445 kts 314°
2026-05-01 14:09 42.12256 -113.92080 35125 ft 444 kts 314°
2026-05-01 14:09 42.14255 -113.95247 35358 ft 443 kts 314°
2026-05-01 14:09 42.16247 -113.98405 35577 ft 442 kts 314°
2026-05-01 14:09 42.18235 -114.01556 35806 ft 440 kts 314°
2026-05-01 14:10 42.20216 -114.04691 36017 ft 439 kts 314°
2026-05-01 14:10 42.24173 -114.10949 36136 ft 436 kts 314°
2026-05-01 14:11 42.28087 -114.17160 36122 ft 434 kts 314°
2026-05-01 14:11 42.33949 -114.26477 36114 ft 433 kts 314°
2026-05-01 14:12 42.37855 -114.32698 36123 ft 435 kts 313°
2026-05-01 14:12 42.41764 -114.38941 36239 ft 435 kts 313°
2026-05-01 14:13 42.45011 -114.44147 36240 ft 435 kts 313°
2026-05-01 14:13 42.49579 -114.51474 36224 ft 435 kts 314°
2026-05-01 14:14 42.53542 -114.57610 36237 ft 435 kts 314°
2026-05-01 14:14 42.57546 -114.63722 36238 ft 433 kts 314°
2026-05-01 14:15 42.61517 -114.69845 36228 ft 431 kts 314°
2026-05-01 14:15 42.65460 -114.75990 36214 ft 430 kts 314°
2026-05-01 14:16 42.69384 -114.82118 36210 ft 430 kts 314°
2026-05-01 14:16 42.73307 -114.88238 36197 ft 429 kts 314°
2026-05-01 14:17 42.77229 -114.94362 36182 ft 429 kts 314°
2026-05-01 14:17 42.81149 -115.00503 36175 ft 428 kts 314°
2026-05-01 14:18 42.85027 -115.06596 36172 ft 428 kts 314°
2026-05-01 14:18 42.88290 -115.11729 36172 ft 428 kts 314°
2026-05-01 14:19 42.92809 -115.18861 36184 ft 427 kts 313°
2026-05-01 14:19 42.96695 -115.24998 36173 ft 426 kts 313°
2026-05-01 14:20 43.02501 -115.34194 36172 ft 425 kts 313°
2026-05-01 14:21 43.06359 -115.40333 36167 ft 425 kts 313°
2026-05-01 14:21 43.10211 -115.46470 36180 ft 425 kts 313°
2026-05-01 14:22 43.15986 -115.55684 36198 ft 424 kts 313°
2026-05-01 14:22 43.19821 -115.61819 36196 ft 424 kts 313°
2026-05-01 14:23 43.23655 -115.67964 36186 ft 424 kts 313°
2026-05-01 14:23 43.27463 -115.74084 36186 ft 424 kts 313°
2026-05-01 14:24 43.31287 -115.80243 36174 ft 424 kts 313°
2026-05-01 14:24 43.35101 -115.86410 36147 ft 424 kts 313°
2026-05-01 14:25 43.38919 -115.92586 36153 ft 424 kts 313°
2026-05-01 14:25 43.42743 -115.98783 36174 ft 425 kts 313°
2026-05-01 14:26 43.48482 -116.08098 36202 ft 426 kts 313°
2026-05-01 14:27 43.52305 -116.14335 36211 ft 426 kts 312°
2026-05-01 14:27 43.56257 -116.20394 36208 ft 423 kts 320°
2026-05-01 14:28 43.62870 -116.28459 36174 ft 423 kts 320°
2026-05-01 14:28 43.67282 -116.33860 36178 ft 423 kts 320°
2026-05-01 14:29 43.71687 -116.39246 36194 ft 423 kts 320°
2026-05-01 14:30 43.80467 -116.50029 36186 ft 424 kts 320°
2026-05-01 14:31 43.87077 -116.58176 36192 ft 424 kts 320°
2026-05-01 14:31 43.91486 -116.63625 36192 ft 424 kts 320°
2026-05-01 14:32 43.95881 -116.69083 36198 ft 424 kts 320°
2026-05-01 14:32 44.00283 -116.74551 36207 ft 425 kts 320°
2026-05-01 14:33 44.04688 -116.80018 36218 ft 425 kts 320°
2026-05-01 14:33 44.09094 -116.85500 36221 ft 425 kts 320°
2026-05-01 14:34 44.13494 -116.90996 36219 ft 425 kts 319°
2026-05-01 14:34 44.17882 -116.96497 36213 ft 424 kts 319°
2026-05-01 14:35 44.22266 -117.02010 36218 ft 423 kts 319°
2026-05-01 14:35 44.26640 -117.07502 36213 ft 423 kts 319°
2026-05-01 14:36 44.31007 -117.13001 36190 ft 422 kts 319°
2026-05-01 14:36 44.35358 -117.18495 36191 ft 422 kts 319°
2026-05-01 14:37 44.39710 -117.23994 36191 ft 421 kts 319°
2026-05-01 14:37 44.44030 -117.29458 36184 ft 421 kts 319°
2026-05-01 14:38 44.48370 -117.34958 36184 ft 421 kts 319°
2026-05-01 14:38 44.52721 -117.40483 36182 ft 421 kts 319°
2026-05-01 14:39 44.57057 -117.45998 36181 ft 421 kts 319°
2026-05-01 14:39 44.61390 -117.51523 36183 ft 421 kts 318°
2026-05-01 14:40 44.65720 -117.57069 36182 ft 421 kts 318°
2026-05-01 14:40 44.70048 -117.62619 36186 ft 421 kts 318°
2026-05-01 14:41 44.74371 -117.68171 36195 ft 421 kts 318°
2026-05-01 14:41 44.78674 -117.73702 36193 ft 421 kts 318°
2026-05-01 14:42 44.82995 -117.79272 36200 ft 421 kts 318°
2026-05-01 14:42 44.87318 -117.84849 36201 ft 421 kts 318°
2026-05-01 14:43 44.91636 -117.90438 36198 ft 421 kts 317°
2026-05-01 14:43 44.95947 -117.96045 36186 ft 421 kts 317°
2026-05-01 14:44 45.00254 -118.01656 36166 ft 421 kts 317°
2026-05-01 14:44 45.06717 -118.10086 36175 ft 421 kts 317°
2026-05-01 14:45 45.12441 -118.17577 36157 ft 421 kts 317°
2026-05-01 14:46 45.16737 -118.23219 36156 ft 421 kts 317°
2026-05-01 14:46 45.23186 -118.31676 36155 ft 421 kts 317°
2026-05-01 14:47 45.27476 -118.37332 36153 ft 421 kts 317°
2026-05-01 14:48 45.33884 -118.45806 36155 ft 421 kts 317°
2026-05-01 14:48 45.40304 -118.54338 36149 ft 421 kts 316°
2026-05-01 14:49 45.48859 -118.65720 36131 ft 420 kts 316°
2026-05-01 14:50 45.57385 -118.77110 36126 ft 420 kts 316°
2026-05-01 14:51 45.63746 -118.85645 36126 ft 420 kts 316°
2026-05-01 14:52 45.70077 -118.94282 36119 ft 419 kts 311°
2026-05-01 14:53 45.75745 -119.03806 36087 ft 419 kts 310°
2026-05-01 14:53 45.79515 -119.10165 36118 ft 418 kts 310°
2026-05-01 14:54 45.83276 -119.16525 36111 ft 418 kts 310°
2026-05-01 14:54 45.87031 -119.22899 36120 ft 418 kts 309°
2026-05-01 14:55 45.90779 -119.29275 36121 ft 418 kts 309°
2026-05-01 14:55 45.94520 -119.35658 36119 ft 418 kts 309°
2026-05-01 14:56 45.98259 -119.42051 36111 ft 418 kts 309°
2026-05-01 14:56 46.01996 -119.48456 36105 ft 418 kts 309°
2026-05-01 14:57 46.05731 -119.54864 36099 ft 418 kts 309°
2026-05-01 14:57 46.11339 -119.64513 36088 ft 419 kts 309°
2026-05-01 14:58 46.15076 -119.70958 36086 ft 419 kts 309°
2026-05-01 14:58 46.18804 -119.77420 36091 ft 419 kts 308°
2026-05-01 14:59 46.22540 -119.83900 36072 ft 420 kts 308°
2026-05-01 14:59 46.24411 -119.87150 35877 ft 421 kts 308°
2026-05-01 14:59 46.26282 -119.90405 35613 ft 422 kts 308°
2026-05-01 15:00 46.30034 -119.96952 35121 ft 424 kts 308°
2026-05-01 15:00 46.31891 -120.00194 34878 ft 425 kts 308°
2026-05-01 15:00 46.33780 -120.03487 34632 ft 426 kts 308°
2026-05-01 15:01 46.35677 -120.06799 34391 ft 428 kts 308°
2026-05-01 15:01 46.37583 -120.10133 34151 ft 430 kts 308°
2026-05-01 15:01 46.39490 -120.13480 33888 ft 432 kts 308°
2026-05-01 15:01 46.41403 -120.16847 33065 ft 436 kts 308°
2026-05-01 15:02 46.43339 -120.20260 32220 ft 437 kts 308°
2026-05-01 15:02 46.44609 -120.22499 31905 ft 432 kts 308°
2026-05-01 15:02 46.47155 -120.26983 31090 ft 428 kts 308°
2026-05-01 15:02 46.49038 -120.30295 30504 ft 425 kts 308°
2026-05-01 15:03 46.50909 -120.33598 29867 ft 422 kts 308°
2026-05-01 15:03 46.52760 -120.36879 29280 ft 418 kts 308°
2026-05-01 15:03 46.54595 -120.40136 28714 ft 413 kts 308°
2026-05-01 15:03 46.56408 -120.43356 28148 ft 410 kts 308°
2026-05-01 15:04 46.58159 -120.46592 27582 ft 406 kts 306°
2026-05-01 15:04 46.59811 -120.49894 27027 ft 402 kts 304°
2026-05-01 15:04 46.61391 -120.53229 26477 ft 399 kts 302°
2026-05-01 15:04 46.62933 -120.56566 25939 ft 396 kts 302°
2026-05-01 15:05 46.64466 -120.59897 25410 ft 395 kts 302°
2026-05-01 15:05 46.65998 -120.63193 24901 ft 392 kts 302°
2026-05-01 15:05 46.67534 -120.66463 24394 ft 390 kts 302°
2026-05-01 15:05 46.69069 -120.69707 23909 ft 388 kts 303°
2026-05-01 15:06 46.70606 -120.72935 23376 ft 387 kts 303°
2026-05-01 15:06 46.72132 -120.76133 22907 ft 383 kts 303°
2026-05-01 15:06 46.73629 -120.79269 22446 ft 379 kts 302°
2026-05-01 15:06 46.75144 -120.82452 21981 ft 376 kts 302°
2026-05-01 15:07 46.76621 -120.85567 21527 ft 372 kts 302°
2026-05-01 15:07 46.78060 -120.88618 21064 ft 368 kts 302°
2026-05-01 15:07 46.79502 -120.91687 20599 ft 366 kts 302°
2026-05-01 15:07 46.80935 -120.94737 20125 ft 364 kts 302°
2026-05-01 15:08 46.82367 -120.97782 19656 ft 363 kts 302°
2026-05-01 15:08 46.83795 -121.00817 19174 ft 362 kts 302°
2026-05-01 15:08 46.85218 -121.03849 18691 ft 362 kts 302°
2026-05-01 15:08 46.86639 -121.06880 18176 ft 361 kts 301°
2026-05-01 15:09 46.88057 -121.09907 17574 ft 361 kts 301°
2026-05-01 15:09 46.89474 -121.12933 17104 ft 360 kts 302°
2026-05-01 15:09 46.90886 -121.15950 16631 ft 359 kts 302°
2026-05-01 15:09 46.92291 -121.18958 16165 ft 358 kts 302°
2026-05-01 15:10 46.93690 -121.21961 15696 ft 357 kts 302°
2026-05-01 15:10 46.96475 -121.27943 14763 ft 354 kts 302°
2026-05-01 15:10 46.97864 -121.30923 14299 ft 353 kts 302°
2026-05-01 15:11 46.99242 -121.33886 13816 ft 352 kts 302°
2026-05-01 15:11 47.01974 -121.39777 12848 ft 347 kts 302°
2026-05-01 15:11 47.03324 -121.42700 12397 ft 344 kts 302°
2026-05-01 15:12 47.04637 -121.45544 12244 ft 327 kts 302°
2026-05-01 15:12 47.07046 -121.50744 12018 ft 298 kts 302°
2026-05-01 15:12 47.08207 -121.53257 12018 ft 296 kts 302°
2026-05-01 15:13 47.11664 -121.60756 12015 ft 296 kts 301°
2026-05-01 15:14 47.13960 -121.65763 12018 ft 298 kts 301°
2026-05-01 15:14 47.15114 -121.68284 12018 ft 298 kts 301°
2026-05-01 15:14 47.17427 -121.73332 12012 ft 298 kts 301°
2026-05-01 15:15 47.19741 -121.78384 12009 ft 298 kts 301°
2026-05-01 15:15 47.22047 -121.83437 12004 ft 297 kts 301°
2026-05-01 15:16 47.24346 -121.88487 12002 ft 297 kts 301°
2026-05-01 15:16 47.26650 -121.93545 12005 ft 298 kts 301°
2026-05-01 15:17 47.28951 -121.98614 12012 ft 298 kts 301°
2026-05-01 15:18 47.32400 -122.06237 12014 ft 298 kts 301°
2026-05-01 15:18 47.33551 -122.08774 12015 ft 298 kts 301°
2026-05-01 15:19 47.35990 -122.16940 12017 ft 289 kts 269°
2026-05-01 15:19 47.35676 -122.22836 12018 ft 289 kts 263°
2026-05-01 15:19 47.35496 -122.25768 12016 ft 282 kts 263°
2026-05-01 15:20 47.35167 -122.31212 12017 ft 254 kts 262°
2026-05-01 15:20 47.35008 -122.33771 12018 ft 249 kts 262°
2026-05-01 15:20 47.34848 -122.36314 12019 ft 248 kts 262°
2026-05-01 15:21 47.34689 -122.38846 12021 ft 248 kts 262°
2026-05-01 15:21 47.34531 -122.41379 12019 ft 248 kts 262°
2026-05-01 15:21 47.34373 -122.43909 12019 ft 248 kts 262°
2026-05-01 15:21 47.34214 -122.46440 12020 ft 248 kts 262°
2026-05-01 15:22 47.33893 -122.51506 12019 ft 247 kts 262°
2026-05-01 15:22 47.33733 -122.54027 12019 ft 247 kts 262°
2026-05-01 15:22 47.33573 -122.56546 12019 ft 247 kts 261°
2026-05-01 15:23 47.33116 -122.58935 12021 ft 242 kts 236°
2026-05-01 15:23 47.31927 -122.60619 12020 ft 239 kts 206°
2026-05-01 15:23 47.30314 -122.61172 12022 ft 242 kts 183°
2026-05-01 15:23 47.28623 -122.61137 12020 ft 243 kts 179°